Vorticity
8 9 8 6 4 3 2 2 2 3 5 6 7 7 7 7 7 7 7 8 8 7 7 7 8 10 10 9 8 7 7 7 8 8 7 9 12 12 8 3 2 5 8 9 8 7 8 9 9 9 9 9 8 8 8 8 9 9 10 10 10 11 10 11 12 9 10 12 10 9 10 10 11 14 14 10 11 11 10 11 12 11 10 8 9
8 7 4 3 2 1 2 3 4 5 6 6 6 7 7 7 7 7 7 7 7 7 8 9 9 9 9 9 9 8 8 9 8 6 9 14 12 5 2 4 7 9 9 9 9 10 10 10 9 8 8 8 8 9 9 9 9 9 10 10 9 11 10 10 11 10 9 10 11 10 11 11 10 12 15 13 11 12 11 12 12 13 13 9 9
5 4 3 3 3 3 4 5 5 6 5 5 7 7 7 8 7 7 7 7 8 9 9 10 9 10 11 10 9 9 10 10 9 12 16 12 3 0 5 9 9 9 9 10 11 11 9 8 8 7 8 9 9 10 10 10 10 10 10 10 10 11 11 12 12 12 11 10 12 11 10 12 12 10 13 14 13 13 11 11 11 12 16 13 10
4 4 4 5 5 5 5 5 5 5 5 5 6 7 8 8 7 7 7 7 9 10 10 10 10 11 12 10 10 12 12 13 16 16 10 1 -1 6 9 9 9 9 9 10 10 8 7 7 8 9 9 10 10 11 11 10 10 10 10 11 12 13 14 15 16 17 17 15 15 17 14 14 15 14 14 14 16 17 14 13 12 10 14 16 13
5 6 5 5 5 4 4 4 4 4 4 5 6 7 7 7 8 8 8 9 9 10 10 10 11 11 9 8 8 9 11 14 13 4 -2 1 7 10 9 8 10 10 10 9 7 7 8 9 10 10 10 11 10 10 10 10 11 12 14 15 16 17 17 18 18 18 19 18 17 19 18 16 16 16 17 15 14 17 17 16 16 12 11 15 16
6 6 4 4 4 3 3 3 4 4 4 6 6 7 8 8 10 8 8 10 10 10 10 9 10 9 6 5 7 8 10 8 1 -3 2 9 11 9 9 10 11 9 8 7 6 8 9 9 11 11 10 10 9 9 11 13 16 16 17 18 17 17 16 15 16 14 15 16 15 15 15 14 15 14 15 16 14 14 16 16 17 16 13 13 15
6 4 1 2 1 2 2 2 4 4 4 6 6 7 8 9 9 8 9 10 9 10 11 10 9 6 5 6 8 10 10 5 1 4 10 11 9 9 11 10 9 7 7 7 9 10 10 10 10 9 10 10 10 13 15 16 18 18 17 16 14 14 13 12 13 13 12 12 12 13 13 12 13 12 11 13 12 11 13 14 15 16 16 15 13
4 2 0 1 1 2 2 2 3 3 4 6 7 8 9 8 9 9 10 10 10 12 12 9 6 6 8 11 12 12 11 8 8 10 11 10 9 10 9 8 7 7 7 9 10 11 11 10 9 9 11 14 15 17 18 16 16 15 13 14 12 12 13 12 12 12 12 13 13 14 15 15 17 18 17 18 17 15 15 15 14 12 13 15 13
3 3 3 4 3 3 3 2 3 3 5 7 8 9 9 8 9 10 10 12 13 12 9 5 7 10 12 12 12 12 11 9 10 10 9 9 9 8 8 7 8 9 9 10 10 10 10 9 10 13 15 17 17 17 17 15 14 13 12 12 12 11 12 12 12 12 13 14 15 16 17 17 16 15 15 16 16 16 16 16 17 16 15 15 13
3 2 3 4 4 5 4 3 3 3 6 8 8 9 9 9 10 10 11 13 11 8 6 6 10 11 10 10 10 10 10 9 9 8 8 9 8 7 8 8 9 10 10 11 9 9 9 10 14 16 16 17 16 15 14 13 13 13 12 12 11 11 11 11 13 14 15 15 16 15 12 12 14 18 20 22 23 23 20 17 15 15 17 17 15
2 1 1 3 5 6 5 3 3 4 7 8 9 9 9 9 10 10 11 11 8 7 8 10 11 9 9 10 10 10 10 8 8 8 8 8 7 7 9 9 10 10 9 10 9 10 13 15 16 16 16 15 14 13 13 12 11 12 11 11 11 11 12 14 15 15 16 15 12 12 18 28 36 40 40 40 40 41 42 40 36 28 24 21 14
2 1 1 3 6 7 5 3 4 5 6 8 9 10 9 10 11 10 10 9 8 9 10 10 10 9 10 10 9 9 9 7 7 8 7 7 7 8 10 10 10 10 9 9 11 14 16 17 16 15 15 14 13 12 11 11 11 10 10 11 13 14 15 16 16 15 12 11 16 30 42 44 36 26 22 24 27 30 34 41 48 50 47 44 33
3 2 3 6 8 7 4 3 4 5 6 8 10 10 10 11 12 11 9 9 9 10 9 9 10 10 10 10 9 8 7 6 8 7 7 8 8 9 10 10 10 9 9 11 14 15 16 15 15 14 13 12 12 11 10 10 10 10 11 13 15 15 14 13 13 13 13 20 37 49 38 17 5 -1 3 20 30 26 21 18 22 30 38 48 54
3 3 6 9 8 5 3 4 5 6 7 9 10 10 11 12 12 11 10 10 10 9 9 10 10 9 9 9 7 6 6 7 7 7 8 9 9 10 11 10 9 9 11 14 15 15 15 14 13 12 11 11 11 10 10 10 10 12 14 15 14 12 12 11 10 16 26 36 43 37 12 -7 -6 -5 1 25 37 29 28 26 16 12 12 18 34
5 7 9 9 6 4 4 5 6 7 9 10 10 11 12 12 11 10 9 10 9 8 9 9 9 9 8 7 5 5 6 7 7 8 9 8 9 11 10 9 9 11 14 16 15 15 14 12 12 11 11 11 11 10 10 10 13 15 14 13 12 11 12 11 12 24 39 39 29 17 4 -1 3 -0 6 26 27 14 24 35 28 20 14 10 17
10 10 8 5 3 4 5 6 6 7 9 10 11 12 12 11 10 9 9 9 9 8 9 9 9 9 7 5 5 6 6 8 8 8 9 9 10 10 9 9 11 14 16 16 14 14 12 11 12 11 11 11 10 10 11 12 14 14 13 12 12 12 12 10 15 31 40 32 20 13 8 7 6 2 12 27 21 11 21 31 27 22 19 17 19
9 6 4 4 5 6 6 6 7 9 10 10 11 11 11 10 9 8 9 9 8 9 9 9 9 7 6 5 5 6 7 8 8 9 9 10 11 9 8 11 14 16 16 14 12 12 11 11 12 12 12 11 9 11 12 12 13 12 12 12 12 12 11 8 18 36 36 24 16 10 8 8 5 5 16 24 20 18 25 27 24 22 23 27 26
5 4 5 5 6 6 5 6 8 10 10 10 10 11 11 11 8 7 9 9 8 9 9 8 8 6 5 5 5 6 8 8 9 9 10 10 9 8 10 14 16 16 14 12 11 11 11 12 13 12 11 9 10 12 11 11 12 11 12 12 12 12 9 8 24 39 33 19 11 8 8 5 2 10 20 19 19 26 31 29 28 26 23 25 25
5 6 5 5 6 5 6 9 10 10 9 9 10 11 12 11 9 7 8 9 9 9 8 8 7 5 5 5 6 7 8 8 9 10 10 10 9 10 13 16 16 14 12 11 11 12 12 13 12 11 10 9 11 12 10 10 10 11 13 12 12 13 8 10 28 39 30 17 10 9 8 2 5 15 16 15 25 32 27 22 21 17 9 10 19
6 6 6 6 5 5 8 11 10 8 8 8 9 12 13 12 9 8 9 10 10 9 7 7 6 5 5 6 6 7 8 9 10 10 10 10 10 13 16 17 15 12 10 10 12 12 13 13 11 10 10 10 11 10 9 11 10 11 14 12 12 14 9 9 26 37 31 18 8 7 6 2 9 16 10 17 32 27 16 16 16 16 18 21 30
7 6 5 4 6 10 12 11 7 6 7 7 9 12 14 12 9 8 9 10 9 7 7 6 5 5 6 7 7 8 9 10 10 10 10 10 12 15 17 14 12 10 9 10 12 12 13 12 10 11 10 9 9 8 9 11 11 13 15 13 13 15 11 8 18 33 36 22 9 8 5 1 11 13 7 22 33 17 10 19 21 24 26 22 26
5 5 5 8 12 14 10 6 5 6 7 7 9 12 14 12 9 9 10 11 9 7 6 6 5 5 7 7 7 8 9 10 10 10 9 10 14 16 14 12 10 9 9 10 12 12 12 12 11 11 10 8 7 8 9 10 11 13 14 14 13 13 11 7 11 31 42 27 12 11 4 2 13 10 7 25 31 13 13 27 28 26 24 17 15
5 7 9 11 11 8 5 4 5 6 5 6 8 12 13 12 9 9 10 10 8 7 6 6 6 6 6 6 6 8 10 11 10 9 9 12 15 15 13 11 9 8 9 10 11 11 11 13 13 10 9 7 6 7 8 7 10 12 13 14 13 12 13 7 8 29 43 28 15 14 5 5 15 10 7 22 24 14 21 30 22 14 17 25 21
6 7 7 6 5 4 4 6 5 4 5 6 8 11 13 12 9 9 10 10 8 7 7 6 7 7 6 6 7 9 11 10 9 9 11 14 15 14 12 10 8 8 9 9 11 12 12 13 13 10 8 8 6 7 7 6 7 10 12 14 14 12 13 9 7 21 35 30 22 16 5 6 14 12 9 16 21 25 29 24 13 5 8 30 43
5 5 5 5 6 7 7 6 4 3 4 5 7 12 13 11 9 9 10 9 8 7 7 7 8 7 6 7 9 10 11 9 8 10 12 14 15 12 10 10 8 8 10 10 10 12 12 13 12 10 9 8 7 7 7 5 6 7 9 13 15 13 13 11 8 11 23 34 32 17 5 6 11 13 13 12 18 32 30 19 22 23 7 7 30
6 6 7 7 7 8 8 5 3 3 4 4 7 11 12 10 9 9 9 9 7 7 8 8 8 6 6 8 10 11 11 9 9 11 13 14 14 11 10 10 9 8 9 9 10 12 12 12 11 10 10 9 8 8 7 6 7 7 6 9 13 15 13 11 10 8 12 30 39 23 7 4 4 9 16 15 17 25 20 13 20 29 18 -1 5
5 6 6 7 9 10 8 4 1 3 4 4 6 10 12 10 9 10 10 8 7 7 9 10 8 6 6 9 10 10 9 8 9 12 14 14 12 11 10 10 10 9 9 9 10 11 12 11 10 11 11 10 10 10 9 8 8 6 6 7 9 14 15 11 12 10 6 19 36 31 15 8 4 7 13 16 18 18 17 18 15 15 24 17 4
5 6 6 6 8 8 5 3 3 4 3 2 6 12 12 10 10 11 10 7 6 8 11 11 8 6 8 10 10 9 8 9 11 13 14 13 11 10 10 10 9 10 9 8 10 10 10 11 11 11 12 11 11 11 10 10 9 7 8 7 5 10 15 12 11 12 6 10 26 32 25 14 6 6 9 14 20 19 18 27 18 1 15 23 4
5 5 6 6 6 7 6 3 2 4 3 3 8 13 13 11 12 12 8 5 7 10 12 10 7 7 10 10 9 9 9 9 12 14 13 12 11 10 10 10 9 9 8 8 9 10 9 10 10 11 13 12 12 12 10 10 11 9 9 9 5 6 11 13 12 13 9 7 14 24 30 23 13 8 6 10 20 19 17 32 27 3 11 25 6
5 6 6 5 6 7 4 1 3 5 3 2 9 16 15 13 13 11 6 5 9 12 11 8 7 8 11 10 8 9 9 10 13 14 13 11 10 9 10 9 9 10 9 8 9 9 8 10 10 11 14 13 12 13 12 11 13 12 10 11 9 5 7 10 13 14 11 8 9 14 23 27 25 17 6 4 17 18 12 27 35 16 9 17 7
7 7 6 6 8 5 1 3 7 4 -0 5 16 20 17 14 11 7 5 8 13 13 9 6 8 10 10 9 8 9 9 10 13 13 11 10 9 8 9 9 8 9 9 8 9 8 7 10 11 11 12 11 10 11 11 9 11 11 11 12 12 9 6 6 9 14 13 10 9 9 13 20 29 30 15 1 9 18 12 16 31 27 12 6 8
8 8 8 9 6 2 3 8 6 2 9 24 28 19 13 11 7 4 7 13 15 11 6 7 10 11 9 8 8 9 10 11 12 12 10 8 7 7 7 8 8 9 9 8 9 8 6 9 11 11 10 9 8 9 9 8 9 9 9 11 11 12 11 7 5 10 13 13 11 9 8 11 20 33 31 10 2 13 16 14 21 29 25 11 3
8 8 9 9 5 4 9 9 4 12 31 36 23 11 10 8 3 5 13 17 13 7 6 10 11 9 7 8 9 9 10 11 11 10 8 7 6 5 6 6 7 8 9 9 8 7 7 8 10 10 9 8 8 8 7 7 8 8 8 9 9 11 13 11 7 6 9 13 14 11 9 7 9 22 36 29 10 5 12 15 14 17 25 23 10
9 8 9 8 7 9 10 6 9 25 35 23 9 9 11 5 2 10 18 16 9 6 9 12 10 7 8 9 8 9 10 10 10 9 7 6 5 4 4 5 6 6 8 9 8 7 7 8 9 8 8 8 7 7 6 6 7 7 6 7 8 9 10 12 11 8 6 9 13 13 12 9 6 10 25 35 29 15 7 10 14 10 12 20 20
10 10 10 9 9 10 9 10 17 26 22 9 5 10 9 3 7 16 19 12 7 7 10 11 9 8 8 8 8 9 9 8 8 8 6 5 5 5 5 5 5 6 7 7 8 7 8 9 8 7 8 7 6 6 5 5 5 5 5 6 6 7 8 10 11 11 9 7 8 12 14 12 8 6 10 21 33 32 18 9 10 12 12 11 13
9 8 8 9 9 9 11 16 21 19 12 7 9 10 7 8 15 18 15 10 7 8 10 10 9 8 8 8 9 9 8 7 7 7 6 6 5 5 6 5 5 6 6 6 7 8 8 9 8 7 7 7 6 5 5 5 5 5 5 5 5 5 7 7 9 10 11 10 7 7 11 13 12 10 8 8 16 30 33 24 13 10 13 15 13
8 8 9 8 8 9 12 16 19 16 11 11 11 10 9 13 18 18 12 7 6 9 11 10 8 7 8 8 8 8 6 6 6 5 5 6 6 5 6 6 5 6 6 6 6 7 8 8 9 8 7 7 6 4 4 4 4 4 4 5 5 5 5 6 7 7 9 11 11 8 8 10 11 12 12 9 6 11 23 33 29 18 12 13 15
3 6 6 6 10 14 12 8 9 11 13 12 11 10 13 18 20 16 9 5 7 11 11 9 8 7 8 8 8 8 7 6 5 5 5 5 5 5 5 5 6 6 6 6 6 6 8 8 8 8 8 7 6 5 4 3 3 3 3 3 4 4 4 4 5 6 6 7 10 10 9 9 9 9 12 13 11 7 7 16 28 32 25 18 12
8 10 8 5 6 6 5 11 18 18 13 11 10 12 18 21 17 11 6 5 9 11 9 8 8 7 7 9 8 7 7 5 4 5 5 4 4 4 4 4 5 5 6 7 6 6 7 8 7 8 8 7 7 6 5 4 4 3 2 3 2 3 4 4 4 5 6 5 6 8 9 10 9 8 9 10 12 13 10 6 11 20 28 31 26
11 9 5 3 1 -3 -0 20 36 28 12 9 15 19 21 18 11 7 6 7 9 10 8 7 8 7 6 8 7 6 6 5 4 5 6 4 4 5 4 3 4 5 5 7 7 6 7 7 7 8 8 8 8 7 5 5 5 3 2 3 2 2 3 3 3 4 4 5 5 5 6 8 9 8 9 9 8 10 13 11 9 8 11 20 29
13 11 5 5 8 1 -4 13 32 25 9 9 19 21 17 11 7 7 8 8 9 10 7 6 8 9 8 8 8 7 6 5 5 5 5 4 4 4 3 3 4 5 6 7 7 7 7 7 6 7 8 8 8 8 6 6 5 4 4 4 3 2 2 2 2 3 3 4 5 5 4 5 7 7 8 10 9 8 9 11 11 11 9 7 11
6 6 2 2 7 7 8 22 32 22 7 9 18 18 12 9 7 7 8 8 9 9 6 6 8 9 8 7 7 5 4 5 5 5 5 4 3 2 3 4 6 6 7 7 7 7 7 7 7 7 7 7 8 8 8 7 6 5 5 5 3 3 3 3 2 3 3 2 3 5 4 4 5 6 6 7 8 8 9 9 9 10 12 12 9
12 13 14 17 19 23 30 37 30 12 3 11 19 15 9 8 8 6 7 10 9 7 6 6 7 8 8 7 6 4 4 5 5 5 4 3 3 3 5 6 6 7 7 7 7 7 7 8 8 7 7 7 7 7 8 7 7 6 6 6 5 4 4 4 3 2 3 3 2 2 3 4 4 5 5 5 6 7 7 9 9 8 8 11 12
16 17 17 20 25 28 32 33 27 19 14 15 15 12 8 8 8 8 8 9 8 6 6 7 6 7 8 6 5 5 6 5 5 5 4 4 4 4 6 6 6 7 8 7 7 7 7 7 8 8 7 7 7 7 7 7 7 7 6 6 6 5 5 5 5 3 3 4 3 2 3 3 3 4 5 5 5 6 6 6 8 8 8 9 9
22 13 2 8 21 24 18 18 27 32 24 13 9 10 10 9 8 8 7 7 6 6 7 7 6 6 7 6 6 7 6 5 5 5 4 4 5 5 6 7 7 7 7 7 7 7 7 7 7 7 7 8 7 7 7 7 7 8 7 6 6 6 5 5 6 5 4 4 4 3 4 3 2 2 3 4 4 5 6 5 6 6 7 8 8
23 12 3 11 21 16 8 14 26 28 18 8 9 11 10 8 8 6 5 6 7 7 7 7 5 5 6 6 6 6 4 4 5 4 4 5 5 5 6 6 5 5 6 7 7 7 7 6 7 6 6 7 7 7 7 7 6 7 8 7 6 6 6 6 6 6 5 5 5 4 4 4 4 3 2 3 3 4 5 5 6 6 6 6 7
11 11 13 17 17 13 17 27 29 18 8 7 11 10 8 8 9 6 5 7 8 7 7 7 6 6 6 6 6 6 5 4 4 4 4 5 5 5 5 5 4 5 7 7 7 8 7 6 7 7 6 7 7 6 6 7 7 7 7 7 6 6 6 6 7 7 6 6 6 5 5 5 5 5 4 3 2 3 3 4 5 5 5 5 6
10 16 23 27 26 25 27 25 16 8 8 10 10 9 9 9 9 7 6 7 7 6 6 7 6 6 6 5 5 5 5 4 5 5 5 4 4 4 5 5 4 6 7 7 7 8 7 7 8 8 7 7 7 7 6 7 7 7 7 7 7 6 6 6 7 7 7 7 7 7 7 6 6 6 6 5 4 3 3 3 4 5 5 5 5
12 18 25 25 21 18 17 12 7 7 11 10 9 11 12 10 8 7 6 6 6 6 6 6 6 6 5 4 4 4 4 4 5 5 4 4 4 4 5 5 5 6 7 7 6 7 8 8 10 10 10 9 8 8 7 6 6 6 7 6 6 6 6 6 6 6 7 7 7 7 7 8 7 7 7 7 6 6 5 3 3 3 4 5 5
14 20 25 21 11 5 7 8 8 8 9 9 12 14 13 9 8 7 6 6 7 6 5 5 5 5 4 4 4 4 4 4 4 4 4 4 5 4 5 6 6 6 6 6 6 7 10 11 12 13 14 13 11 10 9 7 6 6 6 6 6 5 5 6 6 6 6 6 7 7 7 7 8 8 8 8 8 7 6 6 5 4 3 3 5
16 21 24 20 13 9 8 7 7 8 10 11 12 12 11 9 9 7 6 6 7 6 5 6 6 5 5 5 4 4 4 4 4 5 5 4 4 5 5 5 6 6 5 6 7 10 12 13 13 14 14 14 13 13 11 9 8 7 7 6 6 6 6 6 6 6 7 7 7 7 7 7 7 8 8 8 8 8 8 7 6 6 6 4 4
Height
5805 5806 5806 5806 5806 5806 5806 5806 5806 5806 5806 5806 5805 5804 5803 5802 5801 5800 5799 5798 5797 5795 5794 5792 5790 5788 5787 5785 5784 5782 5781 5779 5778 5776 5774 5772 5770 5768 5766 5763 5761 5758 5756 5753 5750 5746 5743 5741 5738 5735 5732 5729 5725 5722 5718 5715 5712 5709 5706 5702 5699 5697 5695 5692 5691 5689 5687 5684 5681 5679 5678 5677 5676 5675 5675 5675 5674 5673 5672 5672 5673 5674 5674 5674 5674
5803 5803 5804 5804 5804 5804 5804 5804 5804 5804 5803 5803 5802 5801 5800 5799 5798 5797 5796 5795 5793 5792 5790 5788 5786 5785 5783 5782 5780 5779 5777 5775 5773 5771 5769 5768 5766 5764 5762 5759 5757 5754 5752 5749 5745 5742 5739 5736 5732 5730 5727 5723 5720 5716 5713 5709 5706 5702 5699 5696 5693 5689 5687 5685 5682 5680 5679 5676 5673 5671 5669 5668 5666 5666 5665 5665 5665 5664 5663 5663 5663 5665 5666 5666 5666
5801 5801 5802 5802 5802 5802 5802 5802 5802 5802 5801 5800 5799 5798 5797 5796 5795 5794 5793 5791 5790 5788 5786 5784 5783 5781 5780 5778 5777 5775 5773 5771 5769 5767 5765 5764 5762 5760 5758 5755 5752 5750 5747 5744 5741 5737 5734 5731 5727 5724 5721 5718 5714 5710 5706 5703 5700 5696 5693 5689 5686 5683 5679 5676 5674 5672 5669 5667 5664 5661 5660 5659 5657 5656 5656 5655 5654 5654 5655 5654 5653 5654 5655 5657 5658
5799 5799 5800 5800 5800 5800 5800 5800 5800 5799 5798 5798 5797 5796 5795 5793 5792 5791 5789 5787 5786 5784 5783 5781 5779 5778 5776 5775 5773 5771 5769 5767 5765 5763 5762 5760 5758 5756 5753 5751 5748 5745 5742 5740 5736 5733 5729 5726 5722 5719 5715 5712 5708 5704 5700 5697 5693 5689 5686 5682 5679 5675 5672 5668 5665 5663 5660 5658 5655 5652 5649 5648 5647 5646 5645 5645 5645 5644 5644 5645 5644 5644 5645 5646 5647
5797 5797 5798 5798 5798 5798 5797 5797 5797 5797 5796 5795 5794 5793 5791 5790 5789 5787 5785 5784 5782 5780 5779 5777 5776 5774 5773 5771 5769 5767 5765 5764 5762 5760 5759 5757 5754 5751 5749 5746 5743 5741 5738 5735 5732 5728 5725 5721 5717 5713 5710 5706 5702 5698 5694 5690 5687 5683 5679 5675 5671 5668 5664 5661 5657 5654 5652 5649 5646 5644 5640 5637 5636 5635 5634 5633 5634 5634 5634 5634 5634 5634 5634 5635 5636
5794 5795 5795 5795 5795 5795 5795 5795 5794 5793 5793 5792 5790 5789 5788 5786 5785 5783 5782 5780 5778 5777 5775 5774 5772 5771 5769 5767 5766 5764 5762 5761 5759 5757 5755 5753 5750 5748 5745 5742 5739 5736 5733 5730 5727 5724 5720 5716 5711 5707 5704 5700 5697 5692 5688 5684 5680 5676 5672 5668 5665 5661 5657 5654 5650 5647 5644 5641 5638 5635 5632 5628 5626 5625 5623 5621 5621 5623 5623 5624 5624 5623 5623 5624 5626
5791 5792 5792 5792 5792 5792 5792 5791 5791 5790 5789 5788 5787 5785 5784 5783 5781 5780 5778 5776 5775 5773 5772 5770 5769 5767 5765 5764 5762 5761 5759 5757 5756 5753 5751 5749 5746 5744 5741 5738 5735 5732 5728 5725 5722 5718 5715 5711 5706 5702 5698 5694 5691 5687 5683 5679 5674 5670 5666 5662 5658 5654 5650 5647 5643 5640 5636 5633 5630 5627 5624 5620 5616 5615 5613 5611 5610 5610 5610 5611 5614 5614 5613 5613 5615
5788 5789 5789 5789 5789 5789 5788 5788 5787 5786 5785 5784 5783 5782 5780 5779 5778 5776 5774 5773 5771 5770 5768 5767 5765 5764 5762 5760 5759 5757 5756 5754 5752 5750 5748 5745 5743 5740 5737 5734 5731 5727 5724 5720 5717 5713 5709 5706 5702 5697 5692 5688 5684 5681 5677 5673 5669 5664 5660 5656 5652 5648 5644 5640 5636 5632 5628 5625 5621 5618 5614 5611 5608 5605 5602 5600 5598 5598 5596 5597 5600 5601 5602 5603 5604
5785 5786 5786 5786 5786 5785 5785 5784 5784 5783 5782 5781 5780 5778 5777 5776 5774 5773 5771 5769 5768 5767 5765 5764 5762 5760 5759 5757 5756 5754 5753 5751 5749 5747 5744 5742 5739 5736 5733 5730 5727 5723 5719 5716 5713 5708 5704 5700 5696 5692 5687 5683 5678 5674 5670 5666 5662 5658 5654 5650 5646 5642 5637 5633 5628 5624 5620 5616 5612 5609 5605 5602 5598 5595 5592 5590 5587 5585 5584 5584 5585 5586 5588 5591 5593
5782 5782 5783 5783 5783 5782 5782 5781 5780 5780 5779 5778 5776 5775 5774 5772 5771 5769 5768 5766 5765 5763 5762 5761 5759 5757 5756 5754 5753 5751 5749 5747 5745 5743 5741 5738 5735 5732 5729 5726 5723 5719 5715 5711 5708 5704 5699 5695 5691 5687 5682 5678 5673 5669 5664 5660 5656 5652 5648 5644 5639 5635 5631 5626 5621 5616 5612 5608 5604 5599 5596 5593 5588 5584 5582 5579 5576 5573 5571 5570 5570 5572 5573 5577 5581
5779 5779 5780 5780 5779 5779 5778 5778 5777 5777 5776 5774 5773 5772 5770 5769 5767 5766 5764 5763 5762 5760 5759 5757 5756 5755 5753 5751 5750 5748 5746 5744 5742 5740 5737 5735 5732 5729 5726 5722 5719 5715 5711 5706 5702 5698 5694 5690 5686 5682 5678 5674 5669 5664 5660 5656 5651 5647 5642 5638 5633 5628 5624 5619 5615 5610 5605 5601 5596 5590 5586 5582 5578 5574 5571 5568 5566 5563 5559 5556 5556 5557 5557 5561 5566
5776 5776 5776 5776 5776 5776 5775 5775 5774 5773 5772 5771 5770 5768 5767 5765 5764 5763 5761 5760 5758 5757 5756 5755 5753 5752 5750 5749 5747 5745 5743 5741 5739 5737 5734 5731 5728 5725 5722 5719 5715 5711 5707 5702 5698 5694 5690 5686 5681 5678 5674 5670 5666 5661 5656 5652 5647 5642 5638 5633 5628 5623 5617 5612 5607 5602 5597 5592 5587 5581 5575 5573 5570 5567 5563 5561 5558 5554 5551 5547 5544 5543 5544 5545 5549
5772 5772 5773 5773 5773 5772 5772 5771 5771 5770 5769 5768 5766 5765 5764 5762 5761 5759 5758 5757 5756 5754 5753 5752 5750 5749 5748 5746 5745 5743 5741 5738 5736 5733 5731 5728 5725 5722 5718 5714 5711 5707 5702 5698 5694 5690 5686 5682 5677 5674 5670 5666 5662 5658 5653 5648 5643 5638 5634 5629 5624 5618 5612 5606 5600 5594 5588 5582 5577 5572 5568 5566 5565 5562 5558 5554 5550 5547 5543 5540 5536 5534 5533 5532 5534
5769 5769 5769 5770 5769 5769 5768 5768 5767 5766 5765 5764 5763 5762 5760 5759 5758 5756 5755 5754 5753 5752 5750 5749 5748 5746 5745 5743 5742 5740 5737 5735 5733 5730 5727 5724 5721 5718 5714 5710 5706 5702 5698 5694 5690 5686 5682 5678 5674 5670 5666 5662 5658 5654 5650 5645 5640 5635 5630 5625 5619 5613 5607 5602 5595 5588 5580 5574 5570 5567 5563 5561 5558 5556 5552 5547 5543 5539 5535 5532 5529 5526 5524 5524 5524
5765 5766 5766 5766 5766 5765 5765 5764 5764 5763 5762 5761 5760 5758 5757 5756 5755 5753 5752 5751 5750 5749 5748 5747 5745 5744 5742 5741 5739 5737 5734 5732 5730 5727 5724 5721 5718 5714 5710 5706 5702 5698 5694 5690 5686 5682 5679 5675 5671 5667 5663 5659 5655 5650 5646 5641 5637 5632 5626 5620 5615 5609 5603 5597 5590 5583 5576 5569 5565 5563 5560 5556 5553 5549 5545 5540 5536 5532 5527 5524 5521 5517 5516 5516 5515
5762 5762 5763 5763 5762 5762 5761 5761 5760 5759 5758 5757 5756 5755 5754 5753 5752 5751 5750 5749 5747 5746 5745 5744 5742 5741 5739 5738 5736 5733 5731 5729 5726 5724 5721 5717 5714 5710 5707 5703 5698 5694 5691 5687 5683 5679 5675 5671 5667 5664 5660 5656 5651 5647 5642 5638 5633 5628 5623 5617 5611 5605 5599 5593 5585 5577 5571 5566 5563 5559 5555 5552 5547 5543 5538 5533 5529 5525 5520 5517 5513 5510 5508 5508 5506
5759 5759 5759 5759 5759 5758 5757 5757 5756 5756 5755 5754 5753 5752 5751 5750 5749 5748 5747 5746 5744 5743 5742 5741 5740 5738 5736 5735 5733 5730 5728 5726 5723 5720 5717 5714 5710 5707 5703 5699 5695 5691 5687 5684 5680 5676 5672 5668 5665 5661 5657 5652 5648 5644 5640 5635 5630 5625 5620 5614 5609 5603 5597 5590 5582 5574 5568 5563 5560 5556 5552 5547 5543 5538 5533 5527 5522 5517 5513 5510 5507 5503 5501 5499 5498
5755 5756 5756 5756 5755 5754 5754 5753 5753 5752 5751 5751 5750 5749 5748 5747 5746 5745 5744 5743 5741 5740 5739 5738 5737 5735 5733 5731 5729 5727 5725 5722 5720 5717 5714 5710 5707 5703 5699 5695 5692 5688 5684 5681 5677 5673 5669 5666 5662 5658 5654 5649 5645 5641 5636 5631 5626 5622 5617 5612 5606 5600 5594 5587 5580 5572 5566 5561 5557 5553 5549 5544 5539 5533 5528 5522 5516 5510 5506 5503 5501 5498 5495 5492 5490
5751 5752 5752 5752 5751 5751 5750 5750 5750 5749 5748 5747 5746 5745 5745 5744 5743 5742 5741 5740 5738 5737 5736 5735 5734 5732 5730 5728 5726 5724 5722 5719 5716 5713 5710 5707 5703 5699 5696 5692 5689 5685 5681 5678 5674 5671 5667 5663 5659 5655 5651 5647 5643 5638 5633 5628 5624 5619 5614 5609 5603 5597 5591 5584 5576 5569 5563 5559 5555 5550 5546 5540 5535 5529 5523 5517 5511 5505 5500 5497 5495 5492 5489 5486 5482
5748 5748 5748 5748 5748 5747 5747 5746 5746 5745 5745 5744 5743 5742 5742 5741 5740 5739 5738 5737 5735 5734 5733 5732 5731 5729 5727 5726 5723 5721 5719 5716 5713 5710 5707 5703 5700 5696 5693 5689 5686 5683 5679 5675 5672 5668 5664 5660 5656 5652 5649 5645 5640 5635 5630 5626 5621 5616 5611 5606 5600 5594 5588 5581 5573 5566 5561 5556 5552 5547 5542 5537 5531 5526 5520 5514 5508 5502 5498 5494 5490 5485 5482 5479 5474
5744 5744 5744 5744 5744 5744 5743 5743 5743 5742 5742 5741 5740 5739 5738 5737 5737 5736 5735 5733 5732 5731 5730 5729 5728 5726 5724 5722 5720 5718 5715 5713 5710 5707 5704 5700 5697 5693 5690 5687 5684 5680 5677 5673 5670 5666 5662 5658 5654 5651 5647 5642 5638 5633 5629 5624 5620 5615 5609 5603 5597 5592 5586 5579 5572 5565 5559 5554 5550 5545 5540 5534 5528 5523 5517 5511 5505 5500 5495 5491 5486 5481 5476 5472 5468
5740 5740 5740 5740 5740 5740 5740 5739 5739 5739 5738 5738 5737 5736 5735 5734 5733 5732 5731 5730 5729 5728 5727 5726 5725 5723 5721 5719 5717 5715 5712 5710 5707 5704 5701 5698 5694 5691 5688 5685 5681 5678 5674 5671 5667 5664 5660 5657 5653 5649 5645 5641 5636 5632 5628 5623 5619 5613 5608 5602 5596 5591 5585 5578 5571 5564 5558 5553 5548 5543 5538 5532 5526 5520 5514 5509 5503 5498 5493 5488 5482 5477 5471 5466 5462
5736 5736 5737 5737 5737 5736 5736 5736 5736 5735 5735 5734 5733 5732 5732 5731 5730 5729 5728 5727 5726 5725 5724 5723 5721 5720 5718 5716 5714 5712 5709 5707 5704 5701 5698 5695 5692 5689 5686 5682 5679 5676 5672 5669 5665 5662 5659 5655 5652 5648 5643 5639 5635 5631 5627 5622 5617 5612 5607 5601 5596 5590 5585 5578 5571 5564 5558 5552 5547 5542 5536 5530 5523 5517 5512 5506 5501 5496 5491 5485 5479 5474 5468 5462 5456
5732 5732 5733 5733 5733 5732 5732 5732 5732 5732 5731 5730 5730 5729 5728 5727 5727 5726 5725 5724 5723 5722 5721 5720 5718 5717 5715 5714 5711 5709 5707 5704 5702 5699 5695 5692 5689 5686 5683 5680 5677 5674 5671 5667 5664 5660 5657 5654 5650 5646 5642 5637 5633 5630 5625 5621 5616 5611 5606 5601 5596 5590 5584 5578 5572 5565 5557 5551 5545 5540 5535 5528 5521 5515 5510 5504 5499 5493 5488 5483 5477 5472 5466 5460 5453
5728 5729 5729 5729 5729 5729 5729 5729 5729 5728 5727 5727 5726 5725 5725 5724 5723 5723 5722 5721 5720 5719 5718 5717 5716 5714 5712 5710 5708 5706 5704 5702 5699 5696 5693 5690 5687 5684 5681 5678 5675 5672 5669 5666 5662 5659 5656 5652 5648 5644 5640 5636 5633 5629 5625 5620 5615 5610 5606 5600 5595 5590 5584 5578 5571 5565 5557 5550 5545 5539 5534 5527 5521 5515 5510 5504 5498 5493 5488 5483 5477 5471 5464 5457 5451
5724 5724 5725 5724 5724 5725 5725 5725 5725 5724 5723 5723 5722 5722 5721 5720 5720 5719 5718 5718 5717 5717 5715 5714 5713 5711 5709 5707 5705 5703 5701 5699 5696 5693 5690 5687 5685 5682 5679 5676 5673 5670 5667 5664 5661 5658 5654 5650 5647 5643 5639 5636 5632 5628 5624 5619 5614 5610 5605 5600 5595 5589 5583 5577 5571 5564 5557 5551 5545 5539 5533 5527 5522 5517 5512 5505 5498 5493 5488 5483 5477 5471 5465 5457 5450
5720 5720 5720 5720 5720 5721 5721 5721 5720 5720 5719 5719 5719 5718 5718 5717 5716 5716 5715 5715 5714 5713 5712 5711 5710 5708 5706 5704 5703 5701 5698 5696 5693 5690 5688 5685 5682 5680 5677 5674 5671 5669 5666 5663 5660 5657 5653 5650 5646 5642 5638 5635 5631 5627 5623 5619 5614 5610 5605 5600 5595 5589 5582 5576 5570 5564 5558 5552 5546 5540 5534 5529 5524 5519 5513 5506 5499 5493 5488 5482 5476 5471 5465 5459 5452
5716 5716 5716 5716 5716 5717 5717 5717 5716 5716 5715 5715 5715 5715 5714 5713 5712 5712 5712 5712 5711 5710 5709 5708 5707 5705 5703 5702 5700 5698 5696 5693 5690 5688 5685 5682 5680 5678 5675 5672 5670 5667 5665 5662 5659 5656 5652 5649 5645 5642 5638 5635 5631 5627 5623 5619 5614 5610 5605 5600 5595 5589 5583 5578 5572 5566 5560 5554 5548 5541 5536 5530 5526 5520 5514 5507 5501 5495 5488 5482 5476 5471 5466 5460 5455
5711 5711 5711 5711 5712 5712 5712 5712 5712 5711 5711 5711 5711 5710 5710 5709 5709 5709 5709 5708 5708 5707 5706 5705 5703 5702 5700 5699 5697 5695 5693 5690 5688 5685 5683 5680 5678 5676 5673 5671 5669 5666 5664 5661 5658 5655 5652 5648 5645 5642 5639 5635 5631 5627 5623 5619 5614 5610 5605 5600 5595 5590 5585 5579 5574 5567 5561 5555 5549 5543 5537 5531 5527 5522 5517 5510 5504 5498 5491 5485 5479 5474 5469 5464 5461
5707 5707 5707 5707 5708 5708 5708 5708 5707 5707 5707 5707 5707 5706 5706 5706 5706 5706 5705 5705 5704 5703 5703 5701 5700 5699 5697 5696 5694 5692 5690 5687 5685 5683 5681 5679 5677 5674 5672 5670 5668 5665 5663 5660 5657 5654 5651 5648 5645 5642 5639 5635 5631 5627 5623 5619 5614 5610 5605 5600 5596 5590 5585 5580 5574 5568 5562 5556 5550 5544 5538 5533 5528 5524 5518 5513 5507 5502 5496 5489 5484 5479 5475 5470 5467
5702 5702 5702 5703 5703 5704 5703 5703 5703 5703 5702 5702 5701 5701 5701 5702 5702 5702 5702 5701 5700 5700 5699 5698 5697 5696 5694 5693 5691 5689 5687 5685 5683 5681 5679 5677 5675 5673 5671 5669 5667 5664 5662 5659 5656 5653 5650 5647 5644 5641 5638 5634 5630 5627 5623 5618 5614 5610 5605 5600 5596 5591 5586 5581 5575 5569 5564 5559 5553 5547 5541 5535 5530 5526 5521 5516 5511 5506 5501 5495 5490 5486 5481 5477 5474
5697 5697 5697 5698 5699 5699 5698 5698 5698 5698 5697 5696 5696 5696 5697 5698 5698 5698 5698 5697 5697 5697 5696 5695 5694 5693 5691 5690 5688 5687 5685 5683 5681 5679 5677 5676 5674 5672 5670 5668 5666 5663 5660 5658 5655 5652 5649 5646 5644 5641 5637 5634 5630 5626 5622 5618 5614 5610 5605 5601 5596 5591 5586 5581 5576 5570 5566 5561 5555 5550 5544 5538 5533 5528 5524 5520 5515 5511 5506 5501 5497 5492 5488 5484 5481
5692 5692 5693 5694 5694 5694 5693 5693 5694 5693 5691 5691 5691 5692 5693 5694 5694 5694 5694 5694 5693 5693 5692 5692 5691 5690 5689 5687 5686 5684 5682 5680 5679 5677 5676 5674 5672 5671 5669 5667 5664 5662 5659 5657 5654 5651 5648 5646 5643 5640 5636 5633 5630 5626 5622 5618 5614 5610 5606 5601 5596 5592 5587 5582 5577 5572 5568 5563 5557 5552 5547 5542 5536 5532 5527 5523 5518 5514 5510 5506 5502 5498 5495 5491 5488
5687 5687 5688 5688 5688 5688 5688 5689 5689 5688 5686 5686 5687 5688 5689 5690 5691 5690 5690 5690 5690 5690 5689 5688 5688 5687 5686 5684 5683 5681 5680 5678 5677 5675 5674 5672 5671 5669 5667 5665 5663 5660 5658 5655 5652 5650 5647 5644 5642 5639 5636 5632 5629 5626 5622 5619 5615 5610 5606 5602 5597 5593 5588 5584 5579 5575 5570 5565 5560 5555 5550 5545 5540 5536 5531 5526 5522 5518 5515 5511 5507 5504 5501 5498 5495
5682 5683 5683 5683 5684 5684 5684 5684 5684 5683 5682 5682 5683 5684 5685 5686 5686 5686 5686 5686 5686 5686 5686 5685 5685 5684 5682 5681 5680 5679 5677 5676 5674 5673 5672 5670 5669 5667 5665 5663 5661 5659 5657 5654 5651 5648 5646 5643 5640 5637 5635 5632 5629 5625 5622 5618 5615 5611 5607 5603 5599 5594 5590 5586 5581 5577 5572 5567 5563 5558 5553 5548 5543 5538 5534 5530 5525 5522 5518 5515 5511 5508 5506 5504 5502
5677 5678 5679 5679 5679 5679 5679 5679 5679 5679 5678 5678 5679 5680 5681 5682 5682 5682 5682 5682 5682 5682 5682 5682 5681 5680 5679 5678 5677 5676 5675 5674 5672 5671 5670 5668 5667 5665 5664 5662 5660 5657 5655 5652 5650 5647 5645 5642 5639 5636 5634 5631 5628 5625 5621 5618 5615 5611 5607 5604 5600 5596 5592 5587 5583 5578 5574 5570 5565 5561 5557 5552 5547 5542 5538 5534 5529 5525 5521 5518 5515 5513 5510 5508 5506
5673 5674 5674 5674 5674 5674 5674 5674 5674 5674 5674 5675 5676 5676 5677 5678 5678 5678 5678 5679 5679 5679 5679 5678 5678 5677 5676 5676 5675 5673 5672 5671 5670 5669 5668 5666 5665 5664 5662 5660 5658 5656 5653 5651 5648 5646 5643 5641 5638 5635 5632 5630 5627 5624 5621 5618 5615 5611 5608 5604 5600 5597 5593 5588 5584 5580 5576 5572 5568 5564 5559 5555 5551 5546 5542 5538 5534 5530 5526 5522 5520 5517 5514 5512 5511
5669 5669 5670 5670 5669 5669 5669 5669 5669 5669 5670 5671 5672 5672 5673 5673 5674 5674 5675 5675 5675 5675 5675 5675 5675 5674 5673 5673 5672 5671 5670 5669 5668 5667 5666 5664 5663 5662 5660 5658 5656 5654 5651 5649 5647 5645 5642 5639 5637 5634 5631 5629 5626 5623 5620 5617 5614 5611 5608 5605 5601 5597 5594 5590 5586 5582 5578 5574 5570 5566 5562 5558 5554 5550 5545 5541 5538 5534 5530 5527 5524 5521 5519 5517 5515
5664 5665 5665 5664 5664 5664 5664 5664 5665 5666 5666 5667 5668 5668 5668 5669 5670 5671 5671 5671 5672 5672 5672 5672 5671 5671 5670 5670 5669 5668 5667 5666 5665 5664 5663 5662 5661 5659 5657 5655 5654 5652 5650 5648 5646 5643 5641 5638 5635 5633 5630 5627 5625 5622 5619 5617 5614 5611 5608 5605 5602 5598 5595 5591 5587 5584 5580 5576 5572 5568 5564 5560 5556 5553 5549 5545 5542 5538 5534 5531 5528 5525 5522 5520 5518
5658 5659 5659 5658 5658 5658 5658 5658 5660 5661 5662 5662 5663 5664 5664 5665 5666 5667 5667 5668 5668 5668 5668 5668 5668 5668 5668 5667 5666 5665 5664 5664 5663 5662 5661 5659 5658 5657 5655 5653 5652 5650 5648 5646 5644 5641 5639 5636 5634 5631 5629 5626 5623 5621 5618 5616 5613 5610 5608 5605 5602 5599 5595 5592 5589 5585 5581 5578 5574 5570 5567 5563 5559 5556 5552 5549 5545 5542 5538 5534 5531 5529 5526 5523 5521
5652 5652 5652 5651 5652 5653 5653 5653 5654 5656 5657 5658 5659 5660 5660 5661 5662 5663 5664 5664 5664 5665 5665 5665 5665 5664 5664 5663 5663 5662 5662 5661 5660 5659 5658 5657 5656 5654 5653 5652 5650 5648 5646 5643 5641 5639 5637 5634 5632 5630 5627 5625 5622 5619 5617 5615 5612 5610 5607 5604 5601 5598 5595 5592 5589 5586 5583 5579 5576 5572 5569 5565 5562 5559 5555 5552 5548 5545 5542 5539 5536 5533 5530 5528 5525
5646 5646 5646 5646 5646 5647 5648 5648 5649 5650 5651 5653 5655 5655 5656 5657 5658 5659 5660 5660 5661 5661 5662 5662 5661 5661 5661 5660 5659 5659 5659 5658 5657 5657 5656 5655 5653 5652 5651 5649 5647 5645 5643 5641 5639 5636 5634 5632 5630 5628 5626 5623 5621 5618 5615 5613 5611 5608 5606 5603 5601 5598 5595 5592 5589 5586 5583 5580 5577 5574 5570 5567 5564 5561 5557 5554 5551 5548 5545 5543 5540 5537 5534 5531 5529
5641 5641 5641 5641 5641 5642 5642 5643 5643 5644 5645 5647 5649 5651 5652 5653 5654 5655 5656 5657 5657 5658 5658 5658 5658 5658 5658 5658 5657 5656 5656 5655 5655 5654 5653 5652 5650 5649 5647 5646 5644 5642 5640 5638 5636 5634 5632 5630 5628 5626 5623 5621 5619 5616 5614 5611 5609 5607 5604 5602 5600 5597 5595 5592 5589 5586 5583 5580 5577 5575 5572 5568 5565 5562 5559 5556 5554 5551 5548 5545 5543 5540 5538 5535 5532
5636 5637 5637 5637 5637 5637 5637 5638 5639 5639 5639 5641 5644 5646 5648 5649 5650 5651 5652 5653 5653 5654 5654 5655 5655 5655 5655 5655 5654 5654 5653 5652 5651 5650 5649 5648 5647 5645 5644 5642 5640 5638 5636 5634 5632 5631 5629 5627 5625 5623 5621 5619 5617 5614 5612 5610 5607 5605 5603 5600 5598 5596 5593 5591 5589 5586 5583 5580 5578 5575 5572 5569 5567 5564 5561 5558 5556 5553 5550 5548 5545 5543 5540 5538 5535
5631 5632 5632 5632 5632 5632 5633 5634 5635 5635 5636 5637 5640 5642 5644 5645 5646 5647 5648 5649 5650 5650 5651 5651 5651 5651 5651 5651 5651 5650 5650 5649 5648 5647 5646 5645 5644 5642 5641 5639 5637 5635 5633 5631 5629 5627 5625 5624 5621 5620 5618 5616 5614 5612 5610 5607 5605 5603 5600 5598 5596 5594 5592 5589 5587 5585 5582 5580 5577 5575 5572 5569 5567 5564 5562 5559 5557 5555 5552 5549 5547 5544 5542 5540 5538
5626 5627 5628 5628 5629 5629 5630 5630 5631 5632 5633 5634 5636 5638 5639 5641 5642 5643 5644 5645 5646 5646 5647 5647 5647 5647 5648 5647 5647 5646 5646 5645 5644 5644 5642 5641 5640 5639 5638 5636 5634 5632 5631 5629 5626 5624 5622 5620 5618 5616 5614 5612 5610 5609 5607 5605 5602 5600 5598 5596 5594 5591 5589 5587 5585 5583 5581 5579 5576 5574 5571 5569 5567 5564 5562 5559 5557 5555 5553 5550 5548 5546 5543 5541 5539
5622 5623 5624 5624 5624 5625 5625 5626 5627 5629 5630 5631 5632 5634 5635 5636 5637 5639 5640 5641 5642 5642 5643 5643 5643 5644 5644 5643 5643 5642 5642 5641 5640 5640 5639 5638 5637 5636 5634 5633 5631 5629 5628 5626 5624 5621 5619 5617 5615 5613 5611 5609 5607 5605 5603 5601 5599 5597 5595 5593 5591 5589 5587 5585 5583 5581 5579 5577 5575 5572 5570 5568 5566 5563 5561 5559 5557 5555 5552 5550 5548 5546 5544 5542 5540
5618 5619 5619 5620 5620 5620 5621 5623 5624 5625 5627 5628 5629 5630 5631 5632 5633 5635 5636 5637 5637 5638 5639 5639 5640 5640 5640 5640 5639 5639 5638 5637 5637 5636 5635 5634 5633 5632 5630 5629 5627 5625 5624 5622 5621 5618 5616 5613 5611 5609 5607 5605 5603 5601 5599 5597 5596 5594 5592 5590 5588 5586 5584 5582 5580 5578 5576 5574 5572 5570 5568 5566 5564 5562 5560 5558 5556 5554 5552 5550 5548 5546 5544 5543 5541
5614 5615 5615 5616 5616 5617 5618 5620 5621 5622 5623 5624 5625 5626 5627 5628 5630 5631 5631 5632 5633 5634 5635 5635 5635 5636 5636 5636 5635 5635 5634 5634 5633 5632 5631 5630 5629 5627 5626 5624 5622 5620 5619 5618 5616 5615 5613 5610 5608 5606 5603 5601 5599 5597 5595 5593 5591 5590 5588 5587 5585 5583 5581 5579 5577 5575 5573 5571 5569 5567 5565 5564 5562 5560 5558 5556 5554 5552 5551 5549 5547 5545 5544 5542 5540
5610 5610 5611 5612 5613 5614 5615 5616 5617 5618 5619 5620 5621 5622 5623 5624 5626 5626 5627 5628 5629 5630 5630 5631 5631 5631 5631 5631 5631 5630 5630 5629 5628 5627 5626 5625 5624 5622 5620 5619 5617 5616 5614 5613 5611 5610 5608 5606 5604 5602 5600 5598 5595 5593 5591 5589 5587 5585 5584 5582 5581 5579 5577 5576 5574 5572 5570 5568 5566 5564 5562 5560 5559 5557 5555 5554 5552 5550 5549 5547 5545 5543 5542 5540 5539
5606 5606 5607 5608 5609 5610 5611 5612 5613 5614 5615 5616 5617 5618 5619 5620 5621 5622 5623 5624 5625 5625 5626 5626 5626 5627 5626 5626 5626 5626 5625 5624 5624 5623 5622 5620 5618 5617 5615 5614 5612 5611 5609 5607 5606 5604 5603 5601 5600 5598 5596 5594 5592 5590 5587 5585 5582 5581 5579 5578 5576 5574 5573 5571 5570 5569 5567 5565 5563 5561 5559 5557 5555 5554 5552 5550 5549 5547 5546 5544 5543 5541 5539 5538 5536